CAPE
6 0 0 1 202 204 305 425 521 497 633 1093 990 914 1017 1223 887 1168 1163 886 926 1666 1804 1892 1977 1880 1961 1817 1933 2077 2263 2165 1713 1184 812 360 427 312 417 410 345 347 223 0 0 0 0 0 0
0 0 0 1 54 171 242 477 573 758 1320 1139 1049 922 913 1210 591 1586 1372 932 1308 1512 1760 1767 1814 1767 1689 1374 1750 2127 2085 1677 1348 888 375 223 290 350 428 393 365 320 54 0 0 0 0 0 0
0 0 0 11 162 140 158 361 739 1097 1122 940 839 934 1038 1548 663 1564 1745 1079 1456 1672 1720 2064 1803 1608 1478 1467 1812 2032 1654 1286 885 399 237 133 238 457 432 386 355 221 0 0 0 0 0 0 0
0 0 11 48 94 18 84 303 847 1089 1077 965 796 840 1461 1489 1337 1754 1573 1336 1404 1554 1640 1842 1713 1621 1425 1548 1590 1676 1394 1037 511 252 196 210 233 471 434 424 341 108 0 0 0 0 0 0 0
0 0 5 26 31 22 84 80 1031 1063 1103 1305 1023 776 1496 1495 1583 1476 1248 1033 895 1177 1516 1766 1489 1433 1565 1654 1600 1521 1241 742 471 256 122 130 283 498 471 370 203 49 0 0 0 0 0 0 0
0 0 14 117 5 8 83 149 786 1163 1462 1383 985 1117 1563 1653 1909 980 768 679 622 990 1232 1384 1216 1615 1694 1775 1551 1551 1117 519 350 278 144 71 200 382 343 210 27 19 0 0 0 0 0 0 0
0 0 1 0 2 1 121 409 786 1315 1608 1520 1159 1579 1572 1471 1379 838 771 813 808 892 918 1200 1152 1204 1530 1426 1258 1297 886 503 380 370 301 115 66 50 28 18 36 38 0 0 0 0 0 0 0
0 0 0 0 0 389 526 864 1219 1328 1084 1132 1217 1491 1519 1550 1105 1014 950 858 1125 1259 1275 1152 1266 1343 1168 1148 1100 1049 615 444 382 302 231 136 60 39 9 90 30 23 0 0 0 0 0 0 0
0 0 0 0 0 184 828 1056 1283 1507 1887 1904 1749 1826 1516 1070 871 942 843 1083 1071 752 972 944 915 1286 1300 950 850 740 456 345 278 258 325 117 18 2 0 0 0 10 15 0 0 0 0 0 0
0 0 0 7 0 588 1096 1060 1224 1481 1665 1501 1468 1219 1068 1085 975 881 732 719 569 392 299 363 787 864 958 1073 839 352 281 56 28 100 132 126 178 106 30 101 12 9 26 0 0 0 0 0 0
108 281 57 10 459 897 1334 1463 1286 1447 1463 1333 1204 1347 1019 871 843 660 578 638 324 285 409 320 395 382 407 963 549 147 379 144 26 111 269 250 196 188 157 286 311 298 26 28 0 3 4 0 0
424 438 296 211 298 831 1210 1161 996 1300 891 1068 1092 887 950 934 1173 785 556 381 335 356 271 151 143 237 426 439 438 215 100 54 0 24 155 230 349 280 341 258 195 189 106 34 16 23 0 4 0
571 643 636 673 886 1010 956 838 734 703 929 982 1135 985 903 1035 912 851 640 292 204 160 124 65 68 90 132 146 132 225 206 37 24 39 105 181 243 250 201 161 157 112 45 20 5 2 2 0 0
559 701 664 734 822 826 791 566 481 754 918 1370 1291 1060 789 833 577 276 170 144 78 97 116 65 31 25 41 44 25 20 60 82 63 59 86 50 54 36 98 13 11 6 4 9 8 4 4 0 0
586 633 626 618 715 797 756 662 562 627 724 978 1144 357 287 278 145 105 85 62 107 54 80 74 46 82 51 34 6 1 17 5 2 26 15 18 6 13 30 32 9 3 5 4 0 0 2 0 0
86 46 386 780 864 645 745 417 336 393 519 567 395 282 252 203 114 155 64 88 176 57 14 86 44 35 23 2 8 20 4 2 4 0 0 0 14 30 5 27 11 6 24 17 1 0 1 1 9
33 324 504 624 967 801 902 362 188 255 291 316 283 202 173 112 44 146 235 229 87 111 10 95 0 0 2 9 0 1 0 0 0 0 4 2 6 7 2 5 31 8 32 51 29 15 1 4 4
158 377 541 685 647 795 501 214 198 213 312 293 199 77 80 272 256 149 174 92 13 2 0 0 9 10 0 0 0 0 0 19 46 0 22 0 0 0 0 2 64 69 101 39 22 10 3 0 0
140 350 546 539 429 406 474 340 237 144 168 57 30 190 139 144 13 12 15 0 12 11 9 0 0 12 6 0 0 0 0 24 23 43 49 57 20 0 61 49 77 124 117 188 118 16 0 0 4
190 391 606 554 534 489 363 251 332 75 76 12 3 44 19 78 50 11 14 12 14 9 6 8 17 27 17 7 22 26 33 34 48 49 56 60 43 43 50 67 82 92 115 175 188 165 15 4 42
46 106 347 337 437 426 341 322 139 220 27 51 63 91 168 162 72 49 3 0 0 4 3 6 11 20 14 3 9 14 22 28 31 37 40 64 76 78 82 83 98 120 120 137 242 229 59 118 122
96 0 92 349 335 260 434 145 505 274 56 74 89 168 184 214 88 11 0 0 0 2 1 22 25 10 2 3 15 42 41 46 56 50 51 65 78 82 77 104 118 140 124 134 237 210 194 165 104
20 41 95 227 233 201 320 277 546 405 249 115 177 160 164 114 34 0 0 0 0 11 22 30 6 3 3 26 52 58 62 54 50 56 76 79 114 88 77 115 126 136 133 134 177 177 186 135 183
102 130 138 254 138 101 207 160 429 332 456 267 183 148 125 38 4 1 0 0 29 30 33 7 0 11 40 58 75 87 84 75 73 82 74 53 55 79 102 112 130 170 163 149 157 179 204 257 132
4 98 98 119 120 135 250 78 526 306 273 261 228 85 53 85 13 4 55 69 71 17 0 0 5 46 59 75 83 84 94 98 90 99 85 111 82 91 155 180 181 184 161 160 188 206 201 167 98
5 5 68 5 17 23 149 152 282 126 146 275 150 40 88 20 0 0 78 44 49 17 0 1 29 48 63 73 94 102 95 83 94 91 113 99 148 183 175 199 182 183 184 211 219 208 194 134 102
11 16 0 0 29 34 88 317 138 55 51 149 29 33 13 22 13 4 74 21 6 1 3 40 51 59 69 88 80 89 80 126 126 121 123 104 132 165 189 191 202 196 230 223 161 91 196 217 174
0 0 0 23 0 0 61 181 185 153 120 118 53 5 9 37 10 48 13 20 0 5 23 26 47 68 80 68 71 92 82 65 36 50 83 98 115 144 147 164 169 185 194 147 99 45 4 6 54
0 2 0 0 0 94 174 304 125 273 343 254 98 72 79 39 36 21 24 5 10 22 21 42 60 33 69 69 76 71 20 43 68 90 69 92 115 118 113 112 93 86 70 91 37 0 0 9 10
0 6 48 199 159 220 226 267 227 250 243 250 114 74 43 13 1 0 1 13 24 32 39 53 64 61 68 64 2 0 69 70 0 0 0 3 4 71 82 40 4 1 15 38 24 24 0 0 0
CIN
-94 0 0 -18 -10 -7 -1 0 0 0 -5 -24 -31 -12 -5 -5 -1 0 0 -5 -5 0 -1 0 -1 -2 -1 -1 0 0 0 0 0 -1 -17 -84 -79 -102 -67 -59 -61 -57 -111 0 0 0 0 0 0
0 0 0 -7 -4 -11 0 0 0 -1 -29 -44 -43 -20 -6 -1 -44 0 0 -12 0 0 -1 0 -1 -4 -2 0 0 0 0 0 -1 -22 -93 -122 -95 -78 -60 -68 -78 -76 -150 0 0 0 0 0 0
0 0 0 -3 0 -1 0 0 0 -14 -42 -20 -19 -27 -19 0 -44 -1 0 -18 0 0 0 0 -1 -3 -2 -1 -1 0 0 0 -14 -86 -104 -119 -88 -41 -43 -48 -49 -80 0 0 0 0 0 0 0
0 0 -10 -5 -1 -17 0 -4 0 -7 -21 -17 -13 -27 -29 -9 -2 0 -4 -1 0 0 0 -3 0 -1 -2 -1 -1 -2 0 -2 -41 -88 -127 -139 -120 -52 -48 -45 -58 -127 0 0 0 0 0 0 0
0 0 -7 -1 0 -24 -6 -10 0 0 -3 -4 -11 -27 -28 -31 -12 -4 -6 -2 -1 0 0 0 -3 -2 0 0 -1 -2 0 -5 -31 -53 -107 -131 -95 -40 -37 -59 -89 -166 0 0 0 0 0 0 0
0 0 -1 0 -3 -38 -11 -10 -4 -1 -1 -11 -16 -35 -45 -31 -5 -32 -35 -18 -8 0 -1 0 -8 -2 -2 0 -1 -1 0 -7 -19 -40 -75 -111 -82 -41 -43 -71 -109 -144 0 0 0 0 0 0 0
0 0 0 0 -22 -7 -30 -21 -8 -1 0 -22 -31 -21 -46 -64 -41 -31 -29 -18 -4 0 0 -2 0 -4 -2 -2 -4 -5 -1 -1 -14 -27 -53 -95 -100 -110 -147 -162 -136 -128 0 0 0 0 0 0 0
0 0 0 0 0 -13 -49 -40 -30 -11 -113 -77 -50 -15 -31 -52 -51 -8 -17 -3 0 0 0 0 0 0 0 0 -2 -2 -8 -16 -28 -52 -71 -88 -104 -127 -178 -93 -130 -129 0 0 0 0 0 0 0
0 0 0 0 0 -29 -46 -42 -101 -78 -68 -57 -58 -32 -63 -85 -58 -49 -36 -11 -2 -6 0 0 0 0 0 -1 -2 -11 -25 -35 -39 -33 -48 -73 -49 -20 0 0 0 -101 -125 0 0 0 0 0 0
0 0 0 -71 0 -35 -60 -46 -66 -46 -55 -96 -98 -102 -88 -63 -70 -70 -72 -45 -53 -58 -47 -11 0 0 0 0 -1 -49 -8 -11 -27 -28 -49 -21 -27 -27 -26 -42 -62 -86 -107 0 0 0 0 0 0
-102 -58 -56 -146 -71 -70 -96 -110 -82 -65 -72 -82 -87 -62 -75 -88 -85 -114 -88 -54 -77 -57 -5 0 0 0 0 -1 -11 -61 -12 -17 -45 -9 -2 0 -3 -1 -7 -1 -6 -1 -72 -4 0 0 0 0 0
-65 -157 -126 -177 -165 -115 -133 -198 -221 -126 -142 -87 -76 -91 -75 -57 -23 -45 -52 -60 -52 -38 -31 -54 -29 -2 -1 0 0 0 -1 -9 0 -24 -3 0 0 0 0 -1 -1 0 -1 -4 0 0 0 -1 0
-82 -144 -158 -176 -191 -205 -229 -242 -259 -190 -118 -90 -42 -45 -58 -23 -15 -10 -24 -74 -91 -79 -78 -87 -80 -53 -36 -13 -6 0 -3 -32 -21 -19 -15 -5 -2 -2 -1 -6 0 -2 0 -3 0 -4 -1 0 0
-123 -134 -153 -172 -167 -190 -209 -251 -270 -133 -80 -27 -7 -15 -38 -19 -35 -82 -112 -90 -88 -84 -65 -89 -95 -114 -82 -49 -13 -30 -10 -19 -37 -8 -6 -17 -12 -20 -12 -19 -18 -19 -14 -5 -4 0 0 0 0
-117 -91 -103 -135 -125 -131 -113 -170 -162 -125 -91 -40 -17 -112 -115 -70 -123 -108 -88 -88 -70 -50 -63 -55 -48 -41 -45 -64 -21 -23 -17 -11 -13 -4 0 -2 -2 -8 -1 -2 -18 -3 -9 0 0 -4 0 0 -1
-33 -52 -5 -85 -80 -114 -79 -183 -191 -153 -115 -88 -107 -120 -105 -73 -80 -57 -81 -57 -14 -37 -58 -18 -32 -24 -21 -3 -10 -7 -24 -22 -3 0 0 -6 -3 0 -3 0 0 -3 -4 -2 -1 0 -2 0 0
-20 -1 -8 -48 -72 -77 -56 -213 -240 -158 -132 -116 -105 -107 -103 -44 -28 -41 -10 -8 -38 -47 -44 -10 0 0 0 0 0 -1 0 0 0 0 0 0 -6 0 0 -1 0 -1 -1 -2 0 0 0 -1 0
0 -2 -14 -17 -92 -79 -163 -243 -213 -182 -124 -111 -118 -149 -98 -28 -5 -13 -15 -47 -88 -91 -25 0 -83 -27 0 0 0 0 0 0 -1 0 -1 0 0 0 0 -1 -1 -1 -1 0 -3 0 -1 0 -7
-8 -3 -26 -86 -111 -99 -90 -127 -150 -173 -133 -186 -82 -28 -16 -23 -82 -88 -73 -1 0 0 0 0 0 0 0 0 0 0 0 0 0 0 0 0 0 0 0 0 0 -1 0 0 0 -1 0 0 -2
-4 -5 -19 -82 -99 -74 -88 -94 -64 -130 -108 -21 -25 -31 -33 -20 -21 -14 -17 0 0 0 0 0 0 0 0 0 0 0 0 0 0 0 0 0 0 0 0 0 0 0 0 0 0 0 -1 -2 -6
-6 -1 -18 -9 -85 -67 -80 -50 -97 -59 -79 -82 -50 -33 -10 -5 -2 -11 -21 0 0 0 0 0 0 0 0 0 0 0 0 0 0 0 0 0 0 0 0 0 0 0 0 0 0 0 -16 0 -1
0 0 -14 -35 -10 0 -30 0 -7 -46 -81 -51 -20 -9 -2 -1 -5 -8 0 0 0 0 0 0 0 0 0 0 0 0 0 0 0 0 0 0 0 0 0 0 0 0 0 0 0 0 0 0 0
-15 -32 -16 -14 -1 -5 -1 -1 0 -2 -14 -36 -1 0 0 0 -2 0 0 -4 -1 -3 0 0 -3 0 0 0 0 0 0 0 0 0 0 0 0 0 0 0 0 0 0 0 0 0 0 0 0
-34 -26 -35 -14 0 0 -1 -2 -3 0 0 0 -1 -3 -1 -1 -2 0 0 0 0 0 0 -2 0 0 0 0 0 0 0 0 0 0 0 0 0 0 0 0 0 0 0 0 0 0 0 0 0
-13 0 0 0 0 0 -14 -1 0 -15 -15 -1 -1 -13 -2 0 0 -9 0 0 -2 -5 0 0 0 0 0 0 0 0 0 0 0 0 0 0 0 0 0 0 0 0 0 0 0 0 0 0 -1
-2 -4 0 0 0 0 -4 0 -7 -21 -10 -1 -2 -5 -1 -1 0 0 -1 0 0 -1 0 -1 0 0 0 0 0 0 0 0 0 0 0 0 0 0 0 0 0 0 0 0 0 0 0 0 -1
-5 0 0 0 0 0 -1 -9 -25 -30 -24 -2 -10 -1 0 -1 -6 -1 0 -4 -1 -4 0 0 0 0 0 0 0 0 0 0 0 0 0 0 0 0 0 0 0 0 0 0 0 0 0 0 -2
0 0 0 0 0 0 0 -1 -1 -1 -3 0 -2 -2 -3 0 -2 0 -1 0 0 0 0 0 -1 -2 -1 0 0 0 0 0 -1 -1 0 0 0 0 0 0 0 0 0 0 0 0 0 -1 0
0 0 0 0 0 0 0 0 -1 0 0 0 0 0 0 -1 0 -3 -1 -4 0 0 0 -2 0 -3 0 0 0 0 0 0 -1 0 0 0 0 0 0 0 0 0 0 0 -1 0 0 0 0
0 0 0 0 0 0 0 0 0 0 0 0 -1 -1 -1 -15 -6 0 0 0 0 0 0 0 0 0 0 0 0 0 0 0 0 0 0 0 0 0 0 0 0 0 -1 0 -2 -2 0 0 0
Wind_Speed
nan nan nan nan 22 10 4 5 11 9 5 2 4 7 3 8 10 6 3 7 5 10 9 10 8 7 9 12 16 19 21 23 24 24 24 23 25 26 27 29 30 31 33 nan nan nan nan nan nan
nan nan nan nan nan 7 5 9 5 6 9 8 6 8 5 3 7 3 8 6 7 6 7 9 8 8 10 12 12 17 19 22 22 22 22 23 25 27 28 31 33 33 nan nan nan nan nan nan nan
nan nan nan nan 16 6 4 5 4 10 10 12 9 3 6 9 3 5 6 12 10 11 11 13 11 13 13 13 16 20 22 23 23 25 26 28 29 31 33 34 36 37 nan nan nan nan nan nan nan
nan nan nan nan nan nan nan 5 8 15 12 11 6 10 8 9 6 2 8 11 11 14 15 19 15 16 16 17 19 25 25 25 27 29 31 31 31 30 31 33 36 40 nan nan nan nan nan nan nan
nan nan nan nan nan nan nan nan 17 22 17 15 9 9 8 1 4 8 10 11 10 14 15 15 15 17 20 23 26 27 27 28 30 32 32 31 30 32 33 36 38 nan nan nan nan nan nan nan nan
nan nan nan 6 nan nan nan 9 19 9 14 16 14 13 9 10 6 12 13 12 11 15 16 18 20 18 18 23 25 32 34 32 32 30 29 nan 33 35 36 37 nan nan nan nan nan nan nan nan nan
nan nan nan nan nan nan 4 9 13 15 14 10 12 13 15 15 13 12 13 12 13 12 15 14 14 23 22 21 22 31 35 30 28 31 32 33 nan nan nan nan nan nan nan nan nan nan nan nan nan
nan nan nan nan nan 17 9 7 7 6 8 13 3 17 25 22 19 16 10 16 17 13 13 9 12 10 10 18 19 26 29 23 28 31 31 31 nan nan nan nan nan nan nan nan nan nan nan nan nan
nan nan nan nan nan 16 11 16 15 15 18 18 17 23 27 26 21 13 13 16 15 13 10 7 10 9 14 14 14 17 17 15 21 27 29 29 nan nan nan nan nan nan nan nan nan nan nan nan nan
nan nan nan nan nan 18 17 19 20 13 22 21 24 26 28 27 27 17 20 20 20 16 11 5 8 13 14 16 15 13 8 nan nan 20 25 26 31 29 nan 37 nan nan nan nan nan nan nan nan nan
16 14 nan nan 20 21 26 20 7 19 19 23 25 28 27 31 27 21 24 30 30 24 16 10 14 12 12 23 23 16 10 15 nan 21 21 27 29 32 33 35 38 39 nan nan nan nan nan nan nan
18 23 19 13 17 16 26 26 29 26 24 29 30 30 31 32 27 31 32 31 30 24 21 18 17 14 15 10 16 21 17 nan nan nan 26 28 29 33 33 34 35 33 32 nan nan nan nan nan nan
29 25 30 31 33 34 31 28 26 28 30 32 31 36 36 32 37 36 40 36 32 31 26 nan nan nan 14 16 19 18 20 nan nan nan 32 34 34 38 34 38 36 39 nan nan nan nan nan nan nan
26 34 32 28 29 33 28 22 18 24 32 33 35 37 36 41 44 44 40 40 nan nan 30 nan nan nan nan nan nan nan nan nan nan nan nan nan nan nan nan nan nan nan nan nan nan nan nan nan nan
24 26 26 24 25 28 23 27 24 25 28 33 36 38 40 46 44 44 nan nan 31 nan nan nan nan nan nan nan nan nan nan nan nan nan nan nan nan nan nan nan nan nan nan nan nan nan nan nan nan
nan nan 14 16 13 11 8 18 19 25 32 35 42 41 46 40 44 40 nan nan 36 nan nan nan nan nan nan nan nan nan nan nan nan nan nan nan nan nan nan nan nan nan nan nan nan nan nan nan nan
nan 15 24 22 16 18 14 27 24 26 32 39 44 45 44 49 nan 38 37 38 nan 37 nan nan nan nan nan nan nan nan nan nan nan nan nan nan nan nan nan nan nan nan nan nan nan nan nan nan nan
26 21 22 25 27 30 35 34 32 32 32 37 43 nan nan 46 40 38 38 nan nan nan nan nan nan nan nan nan nan nan nan nan nan nan nan nan nan nan nan nan nan nan 61 nan nan nan nan nan nan
28 33 37 33 30 27 30 32 32 31 33 nan nan 40 42 43 nan nan nan nan nan nan nan nan nan nan nan nan nan nan nan nan nan nan nan nan nan nan nan nan nan 55 56 57 62 nan nan nan nan
29 33 29 25 23 20 30 34 35 nan nan nan nan nan nan nan nan nan nan nan nan nan nan nan nan nan nan nan nan nan nan nan nan nan nan nan nan nan nan nan nan nan 51 51 56 62 nan nan nan
nan 15 26 26 33 29 36 43 39 44 nan nan nan nan 35 35 nan nan nan nan nan nan nan nan nan nan nan nan nan nan nan nan nan nan nan nan nan nan nan nan nan 51 52 55 57 63 nan 60 63
nan nan nan 35 35 20 41 22 46 42 nan nan nan 35 30 36 nan nan nan nan nan nan nan nan nan nan nan nan nan nan nan nan nan nan nan nan nan nan nan 52 52 53 55 55 54 55 56 57 57
nan nan nan 38 32 30 42 31 40 45 39 38 33 30 35 30 nan nan nan nan nan nan nan nan nan nan nan nan nan nan nan nan nan nan nan nan 44 nan nan 47 47 47 49 51 52 51 51 49 43
31 29 29 36 31 28 37 28 33 32 26 34 37 35 33 nan nan nan nan nan nan nan nan nan nan nan nan nan nan nan nan nan nan nan nan nan nan nan 47 47 48 48 48 47 46 41 38 38 38
nan nan nan 15 16 19 38 nan 31 32 29 26 36 nan nan nan nan nan nan nan nan nan nan nan nan nan nan nan nan nan nan nan nan nan nan 35 nan nan 36 35 37 36 36 35 37 36 34 31 nan
nan nan nan nan nan nan 33 16 29 22 25 28 35 nan nan nan nan nan nan nan nan nan nan nan nan nan nan nan nan 35 nan nan nan nan 27 nan 29 28 29 30 32 32 33 34 33 30 27 25 20
nan nan nan nan nan nan nan 36 28 nan nan 26 nan nan nan nan nan nan nan nan nan nan nan nan nan nan nan nan nan nan nan 24 26 26 25 26 28 29 28 28 29 30 25 33 32 nan 25 20 17
nan nan nan nan nan nan nan 22 21 18 28 31 nan nan nan nan nan nan nan nan nan nan nan nan nan nan nan nan nan nan nan nan nan nan nan nan 25 20 19 22 22 25 25 28 nan nan nan nan nan
nan nan nan nan nan nan 4 22 23 22 26 33 nan nan nan nan nan nan nan nan nan nan nan nan nan nan nan nan nan nan nan nan nan nan nan nan 9 10 14 16 nan nan nan nan nan nan nan nan nan
nan nan nan 7 13 12 16 22 23 27 28 28 27 nan nan nan nan nan nan nan nan nan nan nan nan nan nan nan nan nan nan nan nan nan nan nan nan nan nan nan nan nan nan nan nan nan nan nan nan
Wind_Direction
nan nan nan nan 53 65 297 306 45 2 341 357 23 85 132 158 123 127 83 310 1 315 316 340 311 308 298 296 298 297 285 279 277 273 272 270 267 267 267 266 261 260 262 nan nan nan nan nan nan
nan nan nan nan nan 275 289 18 27 27 338 329 341 24 94 302 195 351 348 5 339 279 313 312 302 284 272 269 273 274 275 273 269 267 267 265 262 263 263 266 268 266 nan nan nan nan nan nan nan
nan nan nan nan 127 224 300 56 37 38 31 48 15 173 98 116 210 328 309 345 319 316 316 291 295 283 277 271 272 269 266 266 266 268 265 260 258 259 263 263 264 262 nan nan nan nan nan nan nan
nan nan nan nan nan nan nan 338 28 14 40 50 346 301 340 146 88 342 326 332 333 320 299 292 298 293 285 277 266 266 265 265 263 264 266 264 261 261 265 263 260 259 nan nan nan nan nan nan nan
nan nan nan nan nan nan nan nan 39 23 6 12 27 324 311 88 105 350 338 347 324 299 294 294 296 294 295 286 271 264 263 259 255 254 256 258 258 256 254 256 258 nan nan nan nan nan nan nan nan
nan nan nan 275 nan nan nan 49 38 23 351 347 325 323 312 6 2 28 347 351 340 314 319 319 315 312 305 286 275 264 263 255 252 249 251 nan 254 255 257 258 nan nan nan nan nan nan nan nan nan
nan nan nan nan nan nan 339 11 32 4 329 283 345 322 332 344 354 10 331 334 3 325 319 299 320 321 308 289 275 270 257 249 249 257 258 258 nan nan nan nan nan nan nan nan nan nan nan nan nan
nan nan nan nan nan 282 300 301 285 286 293 322 348 334 340 345 359 344 356 340 313 329 306 341 340 318 322 316 276 276 255 248 262 264 265 271 nan nan nan nan nan nan nan nan nan nan nan nan nan
nan nan nan nan nan 295 314 304 300 288 276 267 283 299 315 337 346 315 342 320 314 302 293 317 331 336 330 339 287 285 279 266 273 275 273 286 nan nan nan nan nan nan nan nan nan nan nan nan nan
nan nan nan nan nan 280 277 292 309 304 286 294 293 307 317 323 323 315 334 331 318 289 289 295 310 335 347 310 297 199 231 nan nan 279 282 288 281 279 nan 273 nan nan nan nan nan nan nan nan nan
220 207 nan nan 281 285 289 256 251 293 274 292 306 301 314 309 304 311 332 323 324 317 300 290 303 309 328 317 317 313 263 270 nan 278 280 277 277 281 281 279 288 279 nan nan nan nan nan nan nan
260 237 246 278 288 284 288 276 246 256 284 289 290 296 298 303 306 298 315 310 308 305 277 265 280 307 296 283 285 283 282 nan nan nan 261 265 267 269 266 270 270 274 272 nan nan nan nan nan nan
262 259 268 278 279 280 280 266 274 275 288 288 288 293 293 298 304 302 305 302 297 306 284 nan nan nan 283 277 291 293 272 nan nan nan 264 261 264 264 267 267 267 261 nan nan nan nan nan nan nan
261 272 273 279 285 286 286 280 294 288 292 287 287 290 292 298 303 301 295 297 nan nan 289 nan nan nan nan nan nan nan nan nan nan nan nan nan nan nan nan nan nan nan nan nan nan nan nan nan nan
293 285 280 285 300 308 303 273 287 296 294 290 288 291 294 298 296 293 nan nan 288 nan nan nan nan nan nan nan nan nan nan nan nan nan nan nan nan nan nan nan nan nan nan nan nan nan nan nan nan
nan nan 298 273 309 280 327 297 289 300 298 291 292 295 294 297 297 295 nan nan 291 nan nan nan nan nan nan nan nan nan nan nan nan nan nan nan nan nan nan nan nan nan nan nan nan nan nan nan nan
nan 279 293 279 276 294 288 298 298 291 293 291 290 294 292 295 nan 289 287 288 nan 292 nan nan nan nan nan nan nan nan nan nan nan nan nan nan nan nan nan nan nan nan nan nan nan nan nan nan nan
290 291 281 283 277 282 281 293 292 294 297 296 294 nan nan 293 296 296 295 nan nan nan nan nan nan nan nan nan nan nan nan nan nan nan nan nan nan nan nan nan nan nan 276 nan nan nan nan nan nan
264 281 285 286 287 288 301 311 311 305 302 nan nan 300 305 304 nan nan nan nan nan nan nan nan nan nan nan nan nan nan nan nan nan nan nan nan nan nan nan nan nan 280 280 285 287 nan nan nan nan
276 283 282 298 313 318 311 308 310 nan nan nan nan nan nan nan nan nan nan nan nan nan nan nan nan nan nan nan nan nan nan nan nan nan nan nan nan nan nan nan nan nan 275 282 284 287 nan nan nan
nan 267 312 301 313 306 317 322 318 317 nan nan nan nan 305 302 nan nan nan nan nan nan nan nan nan nan nan nan nan nan nan nan nan nan nan nan nan nan nan nan nan 270 272 272 281 285 nan 285 287
nan nan nan 330 338 312 336 312 332 327 nan nan nan 316 307 303 nan nan nan nan nan nan nan nan nan nan nan nan nan nan nan nan nan nan nan nan nan nan nan 269 269 269 269 273 276 282 284 284 281
nan nan nan 331 339 331 333 337 297 317 329 327 329 315 309 306 nan nan nan nan nan nan nan nan nan nan nan nan nan nan nan nan nan nan nan nan 281 nan nan 272 272 270 268 267 271 276 277 278 279
310 317 329 341 346 8 292 315 288 300 320 314 314 307 308 nan nan nan nan nan nan nan nan nan nan nan nan nan nan nan nan nan nan nan nan nan nan nan 278 273 271 269 268 268 267 268 273 278 278
nan nan nan 328 313 289 290 nan 283 284 291 294 309 nan nan nan nan nan nan nan nan nan nan nan nan nan nan nan nan nan nan nan nan nan nan 279 nan nan 277 272 270 269 265 259 258 263 269 274 nan
nan nan nan nan nan nan 312 292 299 297 302 297 295 nan nan nan nan nan nan nan nan nan nan nan nan nan nan nan nan 296 nan nan nan nan 286 nan 285 282 274 271 268 264 260 257 255 255 257 260 269
nan nan nan nan nan nan nan 302 313 nan nan 311 nan nan nan nan nan nan nan nan nan nan nan nan nan nan nan nan nan nan nan 294 289 288 290 288 286 283 274 270 262 256 254 250 252 nan 237 240 245
nan nan nan nan nan nan nan 296 309 306 317 321 nan nan nan nan nan nan nan nan nan nan nan nan nan nan nan nan nan nan nan nan nan nan nan nan 289 278 265 260 253 250 246 248 nan nan nan nan nan
nan nan nan nan nan nan 314 303 312 313 316 321 nan nan nan nan nan nan nan nan nan nan nan nan nan nan nan nan nan nan nan nan nan nan nan nan 282 276 263 257 nan nan nan nan nan nan nan nan nan
nan nan nan 27 330 337 349 315 316 318 314 312 302 nan nan nan nan nan nan nan nan nan nan nan nan nan nan nan nan nan nan nan nan nan nan nan nan nan nan nan nan nan nan nan nan nan nan nan nan